This demonstration page uses our WeatherBlox Daily Observations layout. Learn more.

Left ArrowRight Arrow

Hourly Observations for March 11, 2016

Temp ( °F °C ) Dew Point ( °F °C ) Humidity (%) Winds ( mph kmh ) Pressure ( in mb ) Visibility ( mi km ) Precip ( " mm )
12:15 am 00:15 Clear 41 5 27 -3 57 57 Calm 30.21 1023 10 16 0.00 0.00
12:35 am 00:35 Clear 37 3 27 -3 65 65 ESE 3 6 30.21 1023 10 16 0.00 0.00
12:55 am 00:55 Clear 37 3 27 -3 65 65 ESE 3 6 30.21 1023 10 16 0.00 0.00
1:15 am 01:15 Clear 39 4 28 -2 65 65 Calm 30.24 1024 6 10 0.00 0.00
1:35 am 01:35 Clear 37 3 27 -3 65 65 Calm 30.24 1024 10 16 0.00 0.00
1:55 am 01:55 Clear 39 4 27 -3 61 61 S 3 6 30.21 1023 10 16 0.00 0.00
2:15 am 02:15 Clear 39 4 28 -2 65 65 S 5 7 30.24 1024 10 16 0.00 0.00
2:35 am 02:35 Clear 39 4 28 -2 65 65 S 3 6 30.24 1024 10 16 0.00 0.00
2:55 am 02:55 Clear 39 4 28 -2 65 65 S 3 6 30.24 1024 10 16 0.00 0.00
3:15 am 03:15 Clear 39 4 28 -2 65 65 S 3 6 30.21 1023 10 16 0.00 0.00
3:35 am 03:35 Clear 39 4 28 -2 65 65 SSW 6 9 30.21 1023 10 16 0.00 0.00
3:55 am 03:55 Clear 37 3 28 -2 70 70 SSW 8 13 30.21 1023 10 16 0.00 0.00
4:15 am 04:15 Clear 41 5 28 -2 61 61 SSW 9 15 30.21 1023 10 16 0.00 0.00
4:35 am 04:35 Clear 39 4 28 -2 65 65 SSW 9 15 30.21 1023 10 16 0.00 0.00
4:55 am 04:55 Clear 37 3 27 -3 65 65 S 10 17 30.21 1023 10 16 0.00 0.00
5:15 am 05:15 Clear 36 2 28 -2 75 75 S 12 19 30.27 1025 10 16 0.00 0.00
5:35 am 05:35 Clear 39 4 28 -2 65 65 SSW 10 17 30.24 1024 10 16 0.00 0.00
5:55 am 05:55 Clear 41 5 28 -2 61 61 SSW 14 22 30.24 1024 10 16 0.00 0.00
6:15 am 06:15 Clear 43 6 28 -2 57 57 SSW 12 19 30.24 1024 10 16 0.00 0.00
6:35 am 06:35 Clear 43 6 28 -2 57 57 SSW 14 22 30.24 1024 10 16 0.00 0.00
6:55 am 06:55 Sunny 41 5 28 -2 61 61 SSW 12 19 30.24 1024 10 16 0.00 0.00
7:15 am 07:15 Sunny 41 5 28 -2 61 61 SSW 12 19 30.21 1023 10 16 0.00 0.00
7:35 am 07:35 Sunny 43 6 28 -2 57 57 SSW 12 19 30.21 1023 10 16 0.00 0.00
7:55 am 07:55 Sunny 43 6 28 -2 57 57 SSW 12 19 30.21 1023 10 16 0.00 0.00
8:15 am 08:15 Sunny 45 7 30 -1 57 57 SW 13 20 30.21 1023 10 16 0.00 0.00
8:35 am 08:35 Sunny 48 9 30 -1 50 50 SW 12 19 30.21 1023 10 16 0.00 0.00
8:55 am 08:55 Sunny 50 10 30 -1 47 47 SW 13 20 30.18 1022 10 16 0.00 0.00
9:15 am 09:15 Sunny 52 11 32 0 47 47 SW 14 22 30.18 1022 10 16 0.00 0.00
9:35 am 09:35 Sunny 54 12 34 1 47 47 SW 14 22 30.18 1022 10 16 0.00 0.00
9:55 am 09:55 Sunny 57 14 34 1 41 41 SW 16 26 30.15 1021 10 16 0.00 0.00
10:15 am 10:15 Sunny 59 15 34 1 39 39 SW 17 28 30.15 1021 10 16 0.00 0.00
10:35 am 10:35 Sunny 61 16 34 1 36 36 SW 17 28 30.15 1021 10 16 0.00 0.00
10:55 am 10:55 Sunny 63 17 34 1 34 34 SSW 21 33 30.15 1021 10 16 0.00 0.00
11:15 am 11:15 Sunny 63 17 34 1 34 34 SW 17 28 30.15 1021 10 16 0.00 0.00
11:35 am 11:35 Sunny 64 18 34 1 32 32 SSW 18 30 30.12 1020 10 16 0.00 0.00
11:55 am 11:55 Sunny 66 19 36 2 32 32 SSW 21 33 30.09 1019 10 16 0.00 0.00
12:15 pm 12:15 Sunny 68 20 34 1 28 28 SSW 23 37 30.09 1019 10 16 0.00 0.00
12:35 pm 12:35 Sunny 70 21 34 1 27 27 SSW 18 30 30.06 1018 10 16 0.00 0.00
12:55 pm 12:55 Sunny 70 21 34 1 27 27 S 20 31 30.06 1018 10 16 0.00 0.00
1:15 pm 13:15 Sunny 70 21 34 1 27 27 S 25 41 30.06 1018 10 16 0.00 0.00
1:35 pm 13:35 Sunny 70 21 34 1 27 27 S 23 37 30.06 1018 10 16 0.00 0.00
1:55 pm 13:55 Sunny 70 21 34 1 27 27 S 20 31 30.06 1018 10 16 0.00 0.00
2:15 pm 14:15 Sunny 70 21 32 0 25 25 S 22 35 30.03 1017 10 16 0.00 0.00
2:35 pm 14:35 Sunny 72 22 34 1 25 25 S 23 37 30.03 1017 10 16 0.00 0.00
2:55 pm 14:55 Sunny 72 22 34 1 25 25 S 18 30 30.03 1017 10 16 0.00 0.00
3:15 pm 15:15 Sunny 72 22 32 0 23 23 S 22 35 30.00 1016 10 16 0.00 0.00
3:35 pm 15:35 Sunny 72 22 30 -1 22 22 SSW 18 30 30.00 1016 10 16 0.00 0.00
3:55 pm 15:55 Sunny 72 22 30 -1 22 22 S 22 35 30.00 1016 10 16 0.00 0.00
4:15 pm 16:15 Sunny 70 21 30 -1 23 23 SSW 18 30 29.97 1015 10 16 0.00 0.00
4:35 pm 16:35 Sunny 70 21 28 -2 21 21 SSW 18 30 29.97 1015 10 16 0.00 0.00
4:55 pm 16:55 Sunny 70 21 28 -2 21 21 SSW 16 26 29.97 1015 10 16 0.00 0.00
5:15 pm 17:15 Sunny 70 21 27 -3 20 20 S 18 30 29.97 1015 10 16 0.00 0.00
5:35 pm 17:35 Sunny 68 20 28 -2 23 23 S 16 26 29.97 1015 10 16 0.00 0.00
5:55 pm 17:55 Sunny 66 19 28 -2 24 24 S 15 24 30.00 1016 10 16 0.00 0.00
6:15 pm 18:15 Sunny 64 18 28 -2 26 26 S 14 22 30.03 1017 10 16 0.00 0.00
6:35 pm 18:35 Sunny 63 17 28 -2 27 27 S 13 20 30.03 1017 10 16 0.00 0.00
6:55 pm 18:55 Clear 57 14 28 -2 33 33 S 13 20 30.06 1018 10 16 0.00 0.00
7:15 pm 19:15 Clear 55 13 27 -3 33 33 SSE 12 19 30.06 1018 10 16 0.00 0.00
7:35 pm 19:35 Clear 55 13 28 -2 36 36 SSE 14 22 30.06 1018 10 16 0.00 0.00
7:55 pm 19:55 Clear 55 13 28 -2 36 36 S 12 19 30.06 1018 10 16 0.00 0.00
8:15 pm 20:15 Clear 54 12 28 -2 38 38 S 12 19 30.09 1019 10 16 0.00 0.00
8:35 pm 20:35 Clear 52 11 28 -2 41 41 SSE 9 15 30.09 1019 10 16 0.00 0.00
8:55 pm 20:55 Clear 48 9 28 -2 46 46 SSE 9 15 30.12 1020 10 16 0.00 0.00
9:15 pm 21:15 Clear 48 9 28 -2 46 46 SSE 8 13 30.12 1020 10 16 0.00 0.00
9:35 pm 21:35 Clear 46 8 28 -2 50 50 SSE 7 11 30.12 1020 10 16 0.00 0.00
9:55 pm 21:55 Clear 46 8 28 -2 50 50 SSE 9 15 30.12 1020 10 16 0.00 0.00
10:15 pm 22:15 Clear 46 8 30 -1 53 53 SSE 8 13 30.12 1020 10 16 0.00 0.00
10:35 pm 22:35 Clear 46 8 30 -1 53 53 SSE 8 13 30.12 1020 10 16 0.00 0.00
10:55 pm 22:55 Clear 46 8 30 -1 53 53 S 9 15 30.09 1019 10 16 0.00 0.00
11:15 pm 23:15 Clear 46 8 30 -1 53 53 SSE 9 15 30.09 1019 10 16 0.00 0.00
11:35 pm 23:35 Clear 45 7 30 -1 57 57 S 12 19 30.09 1019 10 16 0.00 0.00
11:55 pm 23:55 Clear 45 7 30 -1 57 57 S 12 19 30.09 1019 10 16 0.00 0.00

Powered by AerisWeather